This demonstration page uses our WeatherBlox Daily Observations layout. Learn more.

Left ArrowRight Arrow

41.55636, -103.73856

Hourly Observations for July 10, 2018

Temp ( °F °C ) Dew Point ( °F °C ) Humidity (%) Winds ( mph kmh ) Pressure ( in mb ) Visibility ( mi km ) Precip ( " mm )
12:58 am 00:58 Clear 68 19.8 49 9.4 51 51 S 13 20 30.09 1019 10 16 N/A
1:58 am 01:58 Clear 65 18.2 50 9.9 59 59 S 7 11 30.11 1020 10 16 N/A
2:58 am 02:58 Clear 64 18 50 9.9 59 59 S 12 19 30.08 1019 10 16 N/A
3:58 am 03:58 Clear 63 17 50 9.9 63 63 WSW 7 11 30.07 1018 10 16 N/A
4:58 am 04:58 Clear 63 17.1 50 9.9 63 63 SSW 9 15 30.07 1018 10 16 N/A
5:58 am 05:58 Sunny 59 15.2 50 10 71 71 SW 9 15 30.07 1018 10 16 N/A
6:58 am 06:58 Sunny 64 17.5 52 11.1 66 66 SSW 7 11 30.07 1018 10 16 N/A
7:58 am 07:58 Sunny 70 20.9 52 11.2 54 54 SSW 9 15 30.06 1018 10 16 N/A
8:58 am 08:58 Sunny 75 24 53 11.8 46 46 S 12 19 30.05 1018 10 16 N/A
9:58 am 09:58 Sunny 82 28 46 8 28 28 S 14 22 30.04 1017 10 16 N/A
10:58 am 10:58 Sunny 85 29.3 43 6.2 23 23 S 16 26 30.03 1017 10 16 N/A
11:58 am 11:58 Sunny 87 30.5 47 8.4 25 25 S 15 24 30.02 1017 10 16 N/A
12:58 pm 12:58 Sunny 89 31.4 45 7.4 22 22 S 16 26 30.01 1016 10 16 N/A
1:59 pm 13:59 Sunny 91 32.9 41 5.1 17 17 S 15 24 29.98 1015 10 16 N/A
3:58 pm 15:58 Sunny 92 33.6 40 4.6 16 16 SSE 21 33 29.93 1014 10 16 N/A
4:56 pm 16:56 Sunny 92 33.2 40 4.7 17 17 S 15 24 29.92 1013 10 16 N/A
5:58 pm 17:58 Sunny 91 32.5 40 4.6 17 17 SSE 15 24 29.92 1013 10 16 N/A
6:58 pm 18:58 Sunny 88 31.2 38 3.4 17 17 SSE 16 26 29.91 1013 10 16 N/A
7:58 pm 19:58 Sunny 83 28.2 38 3.2 20 20 SSE 14 22 29.91 1013 10 16 N/A
8:58 pm 20:58 Clear 78 25.4 42 5.7 28 28 S 13 20 29.92 1013 10 16 N/A
9:58 pm 21:58 Clear 75 24 44 6.8 33 33 S 10 17 29.94 1014 10 16 N/A
10:58 pm 22:58 Clear 73 23 46 8 38 38 S 10 17 29.95 1014 10 16 N/A
11:58 pm 23:58 Clear 72 22 48 9 44 44 S 12 19 29.95 1014 10 16 N/A

Powered by AerisWeather